TimeEDT,TemperatureF,Dew PointF,Humidity,Sea Level PressureIn,VisibilityMPH,Wind Direction,Wind SpeedMPH,Gust SpeedMPH,PrecipitationIn,Events,Conditions,WindDirDegrees,DateUTC
12:53 AM,75.0,73.0,94,29.83,7.0,Calm,Calm,-,N/A,,Clear,0,2013-07-25 04:53:00
1:50 AM,75.2,73.4,94,29.81,8.0,Calm,Calm,-,N/A,,Overcast,0,2013-07-25 05:50:00
1:53 AM,75.0,73.9,96,29.81,8.0,Calm,Calm,-,N/A,,Overcast,0,2013-07-25 05:53:00
2:13 AM,75.2,73.4,94,29.80,9.0,North,3.5,-,N/A,,Overcast,10,2013-07-25 06:13:00
2:35 AM,75.2,73.4,94,29.79,9.0,North,4.6,-,N/A,,Mostly Cloudy,360,2013-07-25 06:35:00
2:48 AM,75.2,73.4,94,29.79,9.0,North,4.6,-,N/A,,Scattered Clouds,350,2013-07-25 06:48:00
2:53 AM,75.0,73.0,94,29.79,9.0,NNW,5.8,-,N/A,,Scattered Clouds,340,2013-07-25 06:53:00
3:53 AM,73.0,71.1,93,29.78,10.0,Calm,Calm,-,N/A,,Clear,0,2013-07-25 07:53:00
4:53 AM,73.0,71.1,93,29.78,7.0,Calm,Calm,-,N/A,,Clear,0,2013-07-25 08:53:00
5:07 AM,73.4,71.6,94,29.79,7.0,East,3.5,-,N/A,,Scattered Clouds,80,2013-07-25 09:07:00
5:15 AM,73.4,71.6,94,29.79,6.0,NE,4.6,-,N/A,,Mostly Cloudy,40,2013-07-25 09:15:00
5:25 AM,73.4,71.6,94,29.80,1.8,NNE,6.9,-,N/A,,Overcast,20,2013-07-25 09:25:00
5:33 AM,73.4,71.6,94,29.80,0.8,NNE,9.2,-,N/A,,Overcast,30,2013-07-25 09:33:00
5:50 AM,73.4,71.6,94,29.81,1.5,NE,6.9,-,0.01,,Overcast,40,2013-07-25 09:50:00
5:53 AM,73.0,72.0,96,29.81,3.0,NE,6.9,-,0.01,,Mostly Cloudy,40,2013-07-25 09:53:00
6:06 AM,71.6,71.6,100,29.81,9.0,NE,8.1,-,N/A,,Scattered Clouds,50,2013-07-25 10:06:00
6:53 AM,72.0,70.0,93,29.82,10.0,North,8.1,-,N/A,,Clear,360,2013-07-25 10:53:00
7:51 AM,73.4,69.8,88,29.84,10.0,North,5.8,-,N/A,,Mostly Cloudy,360,2013-07-25 11:51:00
7:53 AM,75.0,70.0,84,29.84,10.0,North,6.9,-,N/A,,Mostly Cloudy,10,2013-07-25 11:53:00
8:08 AM,73.4,69.8,88,29.84,10.0,North,9.2,-,N/A,,Scattered Clouds,10,2013-07-25 12:08:00
8:53 AM,77.0,70.0,79,29.85,10.0,North,8.1,-,N/A,,Clear,360,2013-07-25 12:53:00
9:53 AM,79.0,71.1,77,29.85,10.0,North,5.8,-,N/A,,Partly Cloudy,350,2013-07-25 13:53:00
10:53 AM,82.0,71.1,69,29.87,10.0,North,8.1,-,N/A,,Clear,350,2013-07-25 14:53:00
11:53 AM,84.0,72.0,67,29.87,10.0,North,8.1,-,N/A,,Partly Cloudy,350,2013-07-25 15:53:00
12:53 PM,86.0,72.0,63,29.88,10.0,North,8.1,-,N/A,,Partly Cloudy,350,2013-07-25 16:53:00
1:53 PM,84.9,71.1,63,29.88,10.0,NNW,8.1,-,N/A,,Scattered Clouds,340,2013-07-25 17:53:00
2:53 PM,87.1,71.1,59,29.88,10.0,North,11.5,-,N/A,,Partly Cloudy,350,2013-07-25 18:53:00
3:53 PM,86.0,71.1,61,29.88,10.0,NNW,11.5,-,N/A,,Clear,340,2013-07-25 19:53:00
4:53 PM,87.1,71.1,59,29.88,10.0,North,10.4,-,N/A,,Partly Cloudy,360,2013-07-25 20:53:00
5:53 PM,86.0,70.0,59,29.89,10.0,NNW,9.2,-,N/A,,Clear,340,2013-07-25 21:53:00
6:53 PM,84.9,70.0,61,29.91,10.0,North,8.1,-,N/A,,Clear,350,2013-07-25 22:53:00
7:53 PM,82.9,71.1,67,29.93,10.0,North,4.6,-,N/A,,Mostly Cloudy,10,2013-07-25 23:53:00
8:53 PM,79.0,70.0,74,29.94,10.0,North,5.8,-,N/A,,Clear,10,2013-07-26 00:53:00
9:53 PM,77.0,71.1,82,29.98,10.0,NNE,3.5,-,N/A,,Clear,20,2013-07-26 01:53:00
10:53 PM,75.9,70.0,82,29.99,10.0,North,4.6,-,N/A,,Clear,10,2013-07-26 02:53:00
11:53 PM,75.0,70.0,84,30.00,10.0,NNE,5.8,-,N/A,,Clear,20,2013-07-26 03:53:00